TimeMDT,TemperatureF,Dew PointF,Humidity,Sea Level PressureIn,VisibilityMPH,Wind Direction,Wind SpeedMPH,Gust SpeedMPH,PrecipitationIn,Events,Conditions,WindDirDegrees,DateUTC
12:15 AM,62.6,41.0,45,30.25,10.0,ESE,27.6,33.4,N/A,,Scattered Clouds,110,2013-06-18 06:15:00
12:35 AM,62.6,41.0,45,30.26,10.0,ESE,24.2,32.2,N/A,,Partly Cloudy,120,2013-06-18 06:35:00
12:55 AM,62.6,41.0,45,30.26,10.0,ESE,20.7,27.6,N/A,,Partly Cloudy,120,2013-06-18 06:55:00
1:15 AM,60.8,41.0,48,30.27,10.0,ESE,20.7,31.1,N/A,,Clear,120,2013-06-18 07:15:00
1:35 AM,60.8,42.8,52,30.26,10.0,ESE,21.9,28.8,N/A,,Clear,110,2013-06-18 07:35:00
1:55 AM,60.8,42.8,52,30.27,10.0,ESE,23.0,27.6,N/A,,Clear,120,2013-06-18 07:55:00
2:15 AM,60.8,42.8,52,30.27,10.0,ESE,20.7,25.3,N/A,,Clear,120,2013-06-18 08:15:00
2:35 AM,60.8,42.8,52,30.27,10.0,ESE,20.7,-,N/A,,Clear,120,2013-06-18 08:35:00
2:55 AM,59.0,42.8,55,30.28,10.0,SE,17.3,-,N/A,,Clear,130,2013-06-18 08:55:00
3:15 AM,59.0,42.8,55,30.28,10.0,ESE,18.4,25.3,N/A,,Clear,120,2013-06-18 09:15:00
3:35 AM,59.0,42.8,55,30.28,10.0,ESE,18.4,23.0,N/A,,Clear,120,2013-06-18 09:35:00
3:55 AM,59.0,42.8,55,30.29,10.0,ESE,18.4,24.2,N/A,,Clear,120,2013-06-18 09:55:00
4:15 AM,59.0,42.8,55,30.28,10.0,ESE,16.1,-,N/A,,Clear,120,2013-06-18 10:15:00
4:35 AM,59.0,42.8,55,30.28,10.0,SE,16.1,-,N/A,,Clear,130,2013-06-18 10:35:00
4:55 AM,59.0,42.8,55,30.29,10.0,SE,16.1,-,N/A,,Scattered Clouds,130,2013-06-18 10:55:00
5:15 AM,59.0,42.8,55,30.30,10.0,SE,15.0,-,N/A,,Overcast,130,2013-06-18 11:15:00
5:35 AM,59.0,42.8,55,30.30,10.0,SSE,9.2,17.3,N/A,,Overcast,150,2013-06-18 11:35:00
5:55 AM,57.2,44.6,63,30.31,10.0,SSE,12.7,17.3,N/A,,Overcast,150,2013-06-18 11:55:00
6:15 AM,57.2,42.8,59,30.32,10.0,SSE,11.5,-,N/A,,Overcast,150,2013-06-18 12:15:00
6:35 AM,59.0,42.8,55,30.32,10.0,SE,10.4,-,N/A,,Overcast,140,2013-06-18 12:35:00
6:55 AM,60.8,42.8,52,30.32,10.0,SE,9.2,-,N/A,,Overcast,130,2013-06-18 12:55:00
7:15 AM,60.8,42.8,52,30.32,10.0,SE,8.1,-,N/A,,Partly Cloudy,140,2013-06-18 13:15:00
7:35 AM,60.8,42.8,52,30.32,10.0,South,4.6,-,N/A,,Mostly Cloudy,190,2013-06-18 13:35:00
7:55 AM,62.6,46.4,55,30.33,10.0,West,5.8,-,N/A,,Overcast,280,2013-06-18 13:55:00
8:15 AM,62.6,46.4,55,30.33,10.0,WNW,4.6,-,N/A,,Overcast,300,2013-06-18 14:15:00
8:35 AM,62.6,44.6,52,30.34,10.0,Calm,Calm,-,N/A,,Overcast,0,2013-06-18 14:35:00
8:55 AM,62.6,46.4,55,30.34,10.0,North,3.5,-,N/A,,Overcast,350,2013-06-18 14:55:00
9:15 AM,64.4,46.4,52,30.34,10.0,Calm,Calm,-,N/A,,Overcast,0,2013-06-18 15:15:00
9:35 AM,64.4,46.4,52,30.33,10.0,WSW,5.8,-,N/A,,Overcast,250,2013-06-18 15:35:00
9:55 AM,66.2,46.4,49,30.32,10.0,West,8.1,-,N/A,,Overcast,270,2013-06-18 15:55:00
10:15 AM,69.8,46.4,43,30.32,10.0,SW,6.9,-,N/A,,Mostly Cloudy,230,2013-06-18 16:15:00
10:35 AM,69.8,44.6,40,30.31,10.0,SE,4.6,-,N/A,,Mostly Cloudy,130,2013-06-18 16:35:00
10:55 AM,69.8,44.6,40,30.31,10.0,WNW,8.1,-,N/A,,Overcast,290,2013-06-18 16:55:00
11:15 AM,73.4,46.4,38,30.30,10.0,WSW,11.5,16.1,N/A,,Mostly Cloudy,240,2013-06-18 17:15:00
11:35 AM,73.4,46.4,38,30.30,10.0,WSW,3.5,-,N/A,,Scattered Clouds,250,2013-06-18 17:35:00
11:55 AM,73.4,46.4,38,30.29,10.0,West,8.1,-,N/A,,Partly Cloudy,260,2013-06-18 17:55:00
12:15 PM,75.2,46.4,36,30.28,10.0,SW,8.1,18.4,N/A,,Scattered Clouds,230,2013-06-18 18:15:00
12:35 PM,73.4,46.4,38,30.27,10.0,WSW,9.2,19.6,N/A,,Scattered Clouds,240,2013-06-18 18:35:00
12:55 PM,75.2,46.4,36,30.26,10.0,WSW,9.2,19.6,N/A,,Partly Cloudy,240,2013-06-18 18:55:00
1:15 PM,75.2,46.4,36,30.25,10.0,SW,12.7,17.3,N/A,,Clear,220,2013-06-18 19:15:00
1:35 PM,77.0,46.4,34,30.24,10.0,West,5.8,21.9,N/A,,Clear,270,2013-06-18 19:35:00
1:55 PM,78.8,46.4,32,30.23,10.0,West,15.0,23.0,N/A,,Clear,280,2013-06-18 19:55:00
2:15 PM,78.8,46.4,32,30.22,10.0,WSW,13.8,21.9,N/A,,Clear,240,2013-06-18 20:15:00
2:35 PM,78.8,46.4,32,30.21,10.0,West,10.4,23.0,N/A,,Clear,260,2013-06-18 20:35:00
2:55 PM,80.6,44.6,28,30.19,10.0,SW,16.1,21.9,N/A,,Clear,230,2013-06-18 20:55:00
3:15 PM,80.6,42.8,26,30.19,10.0,WSW,18.4,26.5,N/A,,Clear,240,2013-06-18 21:15:00
3:35 PM,82.4,42.8,25,30.18,10.0,WSW,15.0,25.3,N/A,,Clear,240,2013-06-18 21:35:00
3:55 PM,82.4,42.8,25,30.17,10.0,WSW,19.6,24.2,N/A,,Partly Cloudy,240,2013-06-18 21:55:00
4:15 PM,82.4,37.4,20,30.16,10.0,SW,15.0,25.3,N/A,,Partly Cloudy,230,2013-06-18 22:15:00
4:35 PM,82.4,37.4,20,30.15,10.0,SSW,19.6,25.3,N/A,,Clear,200,2013-06-18 22:35:00
4:55 PM,84.2,35.6,18,30.15,10.0,WSW,20.7,24.2,N/A,,Clear,240,2013-06-18 22:55:00
5:15 PM,82.4,35.6,19,30.14,10.0,SW,17.3,26.5,N/A,,Clear,230,2013-06-18 23:15:00
5:35 PM,82.4,33.8,17,30.13,10.0,SW,17.3,27.6,N/A,,Clear,220,2013-06-18 23:35:00
5:55 PM,82.4,33.8,17,30.13,10.0,SW,19.6,26.5,N/A,,Clear,220,2013-06-18 23:55:00
6:15 PM,82.4,32.0,16,30.12,10.0,SW,17.3,27.6,N/A,,Clear,220,2013-06-19 00:15:00
6:35 PM,80.6,32.0,17,30.12,10.0,WSW,12.7,17.3,N/A,,Clear,240,2013-06-19 00:35:00
6:55 PM,80.6,33.8,18,30.12,10.0,SW,15.0,20.7,N/A,,Clear,220,2013-06-19 00:55:00
7:15 PM,78.8,32.0,18,30.12,10.0,SW,17.3,-,N/A,,Clear,230,2013-06-19 01:15:00
7:35 PM,78.8,32.0,18,30.12,10.0,SW,11.5,-,N/A,,Clear,230,2013-06-19 01:35:00
7:55 PM,78.8,32.0,18,30.12,10.0,SW,13.8,-,N/A,,Clear,220,2013-06-19 01:55:00
8:15 PM,75.2,32.0,21,30.12,10.0,SW,11.5,-,N/A,,Clear,220,2013-06-19 02:15:00
8:35 PM,73.4,32.0,22,30.12,10.0,SSW,9.2,-,N/A,,Partly Cloudy,210,2013-06-19 02:35:00
8:55 PM,71.6,30.2,22,30.12,10.0,SSW,8.1,-,N/A,,Clear,210,2013-06-19 02:55:00
9:15 PM,69.8,30.2,23,30.12,10.0,SW,6.9,-,N/A,,Clear,220,2013-06-19 03:15:00
9:35 PM,69.8,32.0,25,30.13,10.0,SW,6.9,-,N/A,,Clear,220,2013-06-19 03:35:00
9:55 PM,68.0,32.0,26,30.13,10.0,SSW,5.8,-,N/A,,Clear,210,2013-06-19 03:55:00
10:15 PM,64.4,30.2,28,30.14,10.0,East,5.8,-,N/A,,Clear,100,2013-06-19 04:15:00
10:35 PM,64.4,30.2,28,30.14,10.0,East,5.8,-,N/A,,Clear,100,2013-06-19 04:35:00
10:55 PM,62.6,30.2,30,30.14,10.0,East,8.1,-,N/A,,Clear,100,2013-06-19 04:55:00
11:15 PM,62.6,30.2,30,30.14,10.0,East,9.2,-,N/A,,Clear,90,2013-06-19 05:15:00
11:35 PM,62.6,30.2,30,30.13,10.0,East,10.4,-,N/A,,Clear,90,2013-06-19 05:35:00
11:55 PM,60.8,30.2,31,30.13,10.0,East,10.4,-,N/A,,Partly Cloudy,90,2013-06-19 05:55:00